GFSNW_850_dewp_078.txt.gz
Dewpoint
-8 -6 -5 -6 -4 -2 -2 -2 -2 -3 -2 1 2 2 -3 -5 -7 -9 -9 -8 -6 -4 -5 -5 -5 -4 -0 -5 -5 1 2 -0 1 -1 -2 -3 -0 1 1 7 9 6 7 7
-6 -5 -6 -5 -4 -2 -1 -2 -6 -5 1 1 1 -2 -3 -4 -5 -7 -7 -8 -8 -7 -6 -5 -6 -5 -4 -5 -6 -2 -3 1 3 3 4 -2 -0 2 3 1 5 10 11 6
-6 -6 -5 -6 -6 -4 -3 -1 -1 -6 -0 -0 -0 0 -2 -3 -7 -7 -8 -9 -9 -8 -7 -8 -4 -5 -6 -6 -6 -5 -3 0 4 7 8 5 4 2 2 3 5 7 9 7
-4 -5 -6 -5 -6 -6 -3 -2 -2 -2 -0 -1 -2 -2 -2 -2 -6 -8 -8 -7 -7 -7 -5 -6 -5 -6 -6 -7 -5 -5 -3 3 3 0 4 4 6 6 4 7 7 7 4 5
-3 -3 -5 -6 -4 -5 -2 -3 -5 -7 -4 -4 -3 -3 -2 -3 -4 -4 -3 -4 -7 -7 -5 -5 -3 -4 -3 -1 -5 -4 -5 1 -1 -0 -1 4 1 -1 -1 1 3 -0 2 5
-2 -2 -3 -6 -6 -5 -2 -3 -4 -2 -4 -7 -4 -1 -4 -5 -5 -5 -0 -2 -2 -5 -7 -3 -0 -1 -0 0 0 -2 -1 -1 -1 0 -2 -0 3 -0 -1 -2 -2 -2 -0 -2
-2 -1 -1 -3 -6 -6 -3 -3 -4 -4 -2 -5 -5 -8 -7 -4 -7 -4 -5 -4 0 -1 0 -2 -1 -1 -2 0 -1 -4 -2 -1 0 3 1 4 -2 -5 -5 -4 -3 -4 -3 -3
-2 -1 -1 -1 -5 -7 -4 -3 -3 -3 -2 -6 -8 -8 -7 -3 -4 -3 -3 -4 -1 -1 2 -1 -1 -1 -1 -2 -3 -3 -3 -1 3 3 2 -2 -5 -7 -7 -6 -5 -6 -5 -3
-2 -2 -1 -1 -1 -4 -5 -4 -3 -2 -0 -4 -9 -9 -10 -7 -6 -4 -3 -2 0 1 1 1 1 -0 -2 -1 -2 -3 -3 -0 2 3 3 1 -4 -8 -4 -6 -3 -3 -2 -1
-2 -2 -2 -1 -1 -1 -4 -3 -4 -2 -1 -4 -5 -5 -7 -8 -7 -3 0 2 2 2 2 1 1 0 -3 1 0 1 1 2 3 4 3 -1 -7 -1 -3 1 3 -1 -2 -1
-1 -1 -2 -2 -2 -1 -2 -4 -3 -3 -2 -4 -5 -5 -5 -4 -3 0 1 2 3 3 3 2 -1 1 -0 -1 -2 2 1 3 4 3 3 3 -4 -3 2 4 2 1 1 -0
-1 -1 -1 -3 -2 -1 -2 -2 -3 -3 -2 -4 -3 -4 -5 -5 -3 1 1 1 1 -0 0 -1 -0 2 3 -1 0 0 5 -0 1 -1 -0 -3 -2 2 1 1 1 1 1 0
-1 -1 -1 -2 -2 -1 -2 -4 -4 -4 -2 -2 -2 -4 -3 -3 -5 -3 0 1 0 1 2 3 4 4 1 2 -1 -2 -0 0 3 2 -2 -0 4 3 1 0 0 0 0 1
-1 -1 -0 -2 -2 -1 -1 -2 -3 -3 -2 -2 -4 -3 -3 -5 -3 -2 -3 -0 -1 -0 0 1 2 2 1 2 -1 -1 -2 2 2 4 3 2 3 3 1 1 1 0 -0 -0
-1 -1 -0 -1 -0 -1 -1 -2 -2 -2 -2 -1 -3 -5 -5 -3 -4 -4 -2 -1 1 1 2 2 2 -1 1 0 0 -1 -1 2 4 5 2 3 2 1 0 -0 -0 -0 -1 -1
-2 -1 -0 -1 -1 -1 -1 -1 -2 -1 -2 -1 2 -0 -5 -5 -3 -4 -2 0 1 1 1 1 1 0 0 2 2 2 1 -1 -1 -1 -2 -0 1 -1 -1 -1 -1 -1 -2 -3
-1 -1 -0 -0 -1 -1 -1 -1 -2 -2 -1 -0 -0 -1 -2 -4 -1 -1 -3 -2 1 1 0 1 2 0 2 3 1 1 -0 -1 -2 -3 -2 -1 -1 -2 -3 -3 -2 -3 -4 -5
-1 -1 -0 -0 -1 -1 -1 -1 -2 -2 -1 -0 1 2 0 -1 1 1 1 1 1 1 1 1 1 -1 0 3 -2 -4 -4 -3 -3 -4 -3 -2 -2 -3 -4 -4 -4 -4 -5 -6
-0 -0 -0 -1 -1 -1 -1 -1 -1 -1 -1 -1 1 2 2 0 1 1 1 1 1 1 2 1 -0 0 1 -2 -4 -4 -5 -5 -5 -5 -3 -4 -3 -4 -4 -5 -5 -6 -7 -8
-0 -1 -1 -2 -1 -1 -1 -0 -1 -1 -0 0 0 -1 2 -1 1 2 1 2 2 2 1 1 1 -2 -5 -6 -6 -6 -6 -6 -6 -5 -5 -5 -5 -5 -6 -7 -8 -8 -9 -10
-1 -1 -1 -1 -1 -1 -1 -1 -0 -1 1 -1 -1 1 1 1 1 1 1 2 2 2 3 2 2 -2 -5 -6 -7 -7 -7 -7 -7 -6 -6 -6 -6 -6 -7 -8 -9 -10 -10 -11
-0 -1 -1 -1 -1 -1 1 1 1 1 -0 0 -0 1 1 1 1 1 0 2 2 2 1 3 -1 -4 -6 -7 -8 -7 -7 -7 -7 -8 -8 -8 -8 -8 -9 -10 -11 -11 -12 -12
-2 -1 -1 -0 -1 1 1 1 1 0 -0 -0 0 1 0 1 1 1 2 2 2 -1 2 -1 -4 -7 -8 -8 -8 -9 -9 -9 -9 -9 -10 -10 -11 -11 -11 -12 -12 -12 -12 -12
-4 -3 -3 -2 -3 -3 -3 -2 -1 -2 -1 -0 1 0 1 -0 1 1 2 -1 -1 1 1 -3 -6 -8 -7 -8 -8 -9 -10 -11 -11 -11 -12 -12 -12 -12 -12 -13 -12 -12 -12 -12
-6 -6 -3 -5 -5 -4 -3 -3 -2 -3 -2 -0 1 1 -1 -0 -0 -1 -2 -1 -1 -3 -4 -6 -8 -8 -8 -8 -9 -10 -10 -11 -11 -12 -12 -12 -12 -13 -13 -13 -13 -13 -13 -13
-7 -6 -4 -4 -4 -3 -4 -3 -3 -3 -2 -1 0 -0 -2 -3 -3 -3 -3 -2 -3 -5 -7 -8 -9 -9 -10 -10 -10 -11 -11 -11 -11 -12 -12 -12 -13 -13 -13 -13 -13 -13 -13 -13
-7 -6 -6 -4 -5 -5 -5 -4 -4 -3 -2 -1 -2 -3 -3 -5 -4 -5 -7 -6 -7 -8 -9 -9 -10 -10 -11 -10 -10 -11 -11 -11 -11 -11 -12 -12 -12 -12 -13 -13 -14 -14 -14 -15

GFSNW_850_dewp_084.txt.gz
Dewpoint
-7 -5 -6 -8 -5 -5 -5 -3 -2 -2 -1 -2 -1 -1 -1 -3 -4 -4 -3 -4 -4 -5 -4 -3 -2 -0 -2 -6 -5 0 -2 0 4 2 -3 -3 -0 3 6 9 9 8 9 9
-6 -6 -6 -6 -7 -4 -4 -2 -2 -4 -4 -1 -2 -1 -2 -4 -3 -3 -3 -3 -4 -5 -4 -3 -3 -2 -3 -5 -3 -3 -4 4 4 4 3 5 6 4 4 6 6 8 9 9
-6 -5 -4 -4 -5 -4 -3 -3 -2 -4 -4 -2 -0 1 -0 -1 -3 -3 -4 -4 -4 -5 -4 -4 -3 -4 -5 -5 -4 -5 -4 -0 3 6 5 6 7 6 6 8 9 7 7 7
-6 -6 -4 -4 -3 -5 -4 -3 -4 -3 -1 -0 -0 0 2 1 -0 -1 -3 -3 -4 -3 -3 -4 -4 -4 -2 -3 -1 -3 -2 -0 1 2 3 1 3 4 6 7 8 9 7 7
-6 -6 -5 -3 -2 -3 -3 -3 -3 -3 -4 -3 -1 -0 -1 -2 -3 -3 -3 0 -0 1 1 2 3 1 -1 -2 -0 1 1 2 1 1 -0 -1 2 -0 6 7 6 7 7 7
-6 -4 -3 -3 -2 -2 -3 -4 -4 -2 -4 -4 -3 -1 -3 -3 -2 -2 -3 -4 1 2 1 1 -1 -0 0 0 0 1 1 3 2 3 1 1 3 2 3 5 5 6 8 4
-4 -3 -3 -3 -2 -2 -3 -4 -3 -4 -4 -4 -6 -6 -6 -5 -4 -1 -2 -2 0 -1 -1 -2 -2 -1 -1 0 1 0 1 2 4 4 1 3 -1 -5 -4 2 2 4 4 4
-4 -3 -3 -3 -2 -1 -2 -3 -4 -3 -5 -4 -5 -5 -6 -5 -6 -3 -3 -5 -2 -2 -2 1 1 -0 -1 -1 1 1 1 1 1 2 2 -0 -6 -6 -1 -3 3 2 2 4
-4 -3 -2 -2 -2 -1 -2 -2 -5 -3 -2 -5 -5 -3 -4 -3 -3 -2 -5 -2 -2 -1 1 1 2 2 0 -0 -1 0 1 1 1 1 3 3 -1 -2 -3 -1 6 2 1 2
-4 -3 -2 -2 -2 -2 -1 -2 -2 -5 -3 -5 -5 -4 -3 -3 -2 -1 -1 0 -1 0 0 2 1 1 -2 0 2 1 2 1 2 2 2 2 -1 2 0 4 5 2 2 2
-4 -4 -2 -2 -2 -1 -1 -2 -2 -4 -4 -4 -4 -3 -3 -3 -2 -0 -1 -2 -1 1 0 0 0 -0 -1 0 0 1 3 3 2 2 2 2 3 3 4 4 2 2 2 2
-5 -5 -4 -2 -1 -1 -1 -1 -2 -3 -4 -4 -4 -4 -5 -6 -6 -4 -2 -0 -0 1 2 0 1 0 -1 1 2 2 4 4 3 1 0 3 4 4 3 3 2 1 1 1
-4 -4 -2 -2 -2 -1 -1 -1 -1 -2 -2 -3 -5 -6 -7 -4 -3 -5 -2 -1 -1 -0 -1 1 0 1 2 2 2 4 3 2 4 3 3 3 3 2 1 1 0 1 1 0
-2 -2 -1 -1 -1 -1 -1 -1 -1 -2 -2 -4 -5 -7 -8 -9 -9 -8 -3 -2 -2 -2 0 -0 0 0 1 2 2 3 3 3 3 4 3 2 2 1 1 -1 -0 0 -1 -1
-3 -2 -1 -1 -1 -1 -1 -1 -1 -2 -3 -4 -4 -5 -9 -9 -7 -5 -3 -3 -2 -1 1 -1 -0 0 2 2 2 2 0 2 3 2 -0 1 -1 -0 0 0 -1 -2 -2 -3
-2 -2 -1 -1 -1 -1 -2 -2 -2 -2 -2 -3 -3 -4 -6 -4 -4 -5 -3 -5 -2 -1 0 -0 1 -0 1 2 3 -1 -1 -1 -1 0 -0 -1 -2 -2 -2 -2 -3 -4 -4 -4
-2 -1 -1 -1 -0 -1 -2 -3 -3 -2 -2 -3 -2 -2 -3 -2 -3 -3 -3 -5 -1 -0 1 1 0 0 1 1 1 -2 -3 -3 -3 -1 0 -2 -2 -4 -4 -4 -5 -5 -6 -6
-1 -1 -0 -1 -1 -1 -2 -0 -1 -2 -2 -2 -1 -3 -0 -2 -1 0 -2 -2 -1 -0 0 1 1 1 -0 -1 -3 -5 -5 -4 -4 -3 -3 -4 -4 -4 -5 -5 -6 -6 -8 -8
-1 -1 -1 -0 -1 -1 -2 -1 -2 -2 -2 -2 -2 -3 -1 -1 0 0 -0 -2 0 -1 0 0 0 -2 -4 -5 -6 -6 -6 -6 -6 -5 -5 -5 -5 -6 -7 -7 -7 -8 -9 -10
-1 -1 -0 -2 -1 -1 -1 -1 -2 -1 -1 -1 -1 -1 0 0 1 0 0 -0 0 0 -0 0 -2 -4 -6 -6 -6 -7 -7 -7 -7 -6 -6 -6 -7 -8 -8 -9 -9 -9 -10 -11
-1 -1 -1 -1 -1 -1 -1 -2 -2 -1 -2 -2 -1 -1 1 1 0 -0 -0 1 0 1 -0 1 -2 -4 -6 -7 -8 -8 -8 -8 -8 -8 -8 -7 -8 -9 -10 -10 -11 -11 -11 -11
-1 -1 -1 -1 -1 -1 -1 -1 -1 -2 -2 -1 -2 1 1 0 0 0 0 -1 1 0 1 -2 -5 -6 -7 -8 -9 -10 -9 -10 -10 -10 -10 -10 -10 -10 -11 -11 -12 -12 -12 -12
-1 -1 -1 -1 -2 -1 -1 -0 -0 -1 -0 1 1 -0 -0 0 0 0 -0 -1 0 -0 -3 -5 -6 -7 -8 -9 -10 -11 -11 -11 -11 -11 -11 -11 -11 -11 -12 -12 -12 -12 -12 -12
-2 -3 -6 -3 -6 -6 -6 -3 -2 -2 -1 0 -0 -0 -0 -0 -1 -2 0 -3 -2 -2 -6 -7 -8 -8 -8 -9 -11 -12 -12 -12 -12 -12 -12 -12 -12 -12 -12 -12 -12 -12 -13 -13
-6 -6 -6 -8 -6 -4 -3 -2 -2 -2 -0 0 -1 -2 -2 -3 -3 -3 -4 -3 -4 -5 -8 -11 -8 -9 -9 -10 -11 -11 -11 -12 -12 -12 -13 -13 -13 -13 -13 -13 -13 -13 -13 -13
-7 -6 -5 -4 -6 -5 -4 -3 -3 -2 -0 -1 -2 -3 -5 -5 -5 -6 -7 -4 -7 -10 -12 -9 -9 -10 -10 -10 -11 -11 -11 -12 -12 -12 -12 -13 -13 -13 -13 -13 -13 -13 -14 -14
-7 -6 -5 -5 -5 -5 -5 -5 -4 -2 -1 -4 -5 -4 -3 -4 -7 -9 -10 -12 -13 -9 -9 -9 -10 -11 -11 -11 -11 -11 -12 -12 -12 -13 -13 -13 -13 -13 -13 -13 -14 -14 -14 -16

GFSNW_850_dewp_087.txt.gz
Dewpoint
-6 -8 -7 -6 -6 -7 -5 -3 -4 -5 -4 -2 -3 -3 -2 -3 -4 -5 -4 -1 -3 -4 -3 -2 -2 1 -1 -5 -2 0 -2 2 4 3 -1 -1 -0 4 5 7 8 9 8 8
-6 -7 -6 -5 -4 -4 -4 -3 -3 -4 -2 -1 -4 -3 -4 -5 -5 -6 -4 -3 -2 -4 -2 -3 -2 -2 -4 -5 -4 -4 -4 3 3 3 3 4 5 5 4 6 7 8 8 8
-8 -7 -6 -5 -4 -3 -4 -3 -3 -4 -2 -1 -1 -2 -2 -0 -3 -4 -3 -3 -4 -3 -4 -4 -3 -3 -2 -3 -2 -4 -4 1 2 2 3 5 6 5 5 6 8 8 8 6
-6 -7 -7 -5 -4 -3 -4 -4 -5 -3 -2 -2 -2 -1 0 1 -0 -2 -2 -1 0 1 -1 -2 1 0 -2 -1 -0 -2 -2 -1 -0 1 1 2 3 3 3 6 7 8 7 7
-8 -6 -6 -5 -3 -2 -3 -4 -4 -4 -4 -4 -3 -2 0 1 0 -2 -3 -0 -1 1 1 1 2 1 1 0 -1 0 0 1 1 1 -0 0 1 -0 1 3 6 7 6 7
-5 -7 -5 -3 -3 -2 -3 -4 -4 -4 -5 -5 -4 -3 -4 -2 -2 -1 -2 -2 0 0 1 0 -1 -1 -0 0 1 -0 1 2 2 3 1 1 2 0 -3 5 5 5 7 6
-6 -5 -3 -3 -3 -2 -2 -3 -4 -3 -5 -4 -6 -6 -6 -6 -4 -2 -3 -3 -0 -2 -1 -1 -1 -0 1 0 -0 -0 1 2 3 3 1 2 -3 -6 -6 -2 4 3 3 4
-4 -4 -4 -3 -3 -2 -2 -2 -3 -5 -5 -4 -4 -5 -5 -4 -4 -4 -4 -3 -0 -1 -2 -1 0 -1 -2 -2 -1 1 0 1 1 2 2 -1 -3 -6 -0 2 1 2 3 3
-4 -4 -4 -3 -2 -2 -1 -2 -3 -4 -3 -5 -6 -4 -4 -2 -2 -2 -2 -3 -1 -1 -0 1 2 1 -0 -0 -1 -0 1 -0 1 1 3 1 -3 -1 1 0 3 2 3 5
-5 -5 -4 -2 -2 -2 -1 -1 -2 -3 -3 -6 -5 -4 -3 -3 -2 -1 -1 -2 -1 -0 0 1 2 2 -1 -1 1 -0 2 1 3 2 2 1 -2 3 1 3 4 3 3 3
-5 -5 -5 -4 -2 -2 -1 -1 -2 -3 -4 -6 -4 -4 -5 -5 -2 -2 -3 -3 -2 0 1 0 0 -0 -1 0 -1 -0 1 2 2 2 3 2 3 3 2 3 3 2 3 2
-5 -5 -5 -5 -3 -2 -2 -1 -2 -2 -3 -5 -3 -6 -6 -4 -5 -4 -3 -2 -1 -0 1 1 1 1 -1 1 1 2 1 1 3 1 1 3 2 2 3 3 3 2 2 1
-4 -4 -4 -5 -5 -3 -2 -1 -1 -2 -2 -3 -4 -7 -8 -5 -6 -6 -5 -2 -3 -1 -1 -1 1 -0 0 1 1 2 2 1 2 4 4 3 2 1 1 -0 -1 -0 -0 -0
-3 -3 -4 -4 -4 -3 -1 -1 -1 -2 -2 -2 -5 -6 -7 -8 -8 -6 -6 -4 -3 -1 -1 -0 0 0 -0 1 1 2 2 1 3 2 2 1 0 0 -0 -0 -0 -1 -2 -3
-2 -2 -3 -3 -1 -1 -1 -1 -1 -2 -2 -4 -5 -6 -8 -8 -7 -7 -8 -6 -5 -1 -0 0 -0 -1 1 1 2 -0 -1 -0 1 1 -1 -1 -2 -1 -0 0 -0 -2 -3 -4
-3 -3 -3 -1 -1 -1 -1 -2 -2 -2 -2 -2 -5 -6 -6 -3 -8 -5 -7 -5 -1 -1 0 -0 -0 -0 1 -1 1 -2 -2 -2 -2 -1 -2 -2 -3 -3 -2 -2 -3 -4 -4 -5
-3 -2 -1 -1 -1 -1 -2 -3 -4 -2 -2 -3 -3 -3 -4 -2 -2 -3 -3 -4 -3 -2 0 -0 -1 -0 1 1 -0 -3 -3 -3 -3 -2 -2 -2 -3 -4 -5 -5 -5 -5 -5 -6
-2 -2 -1 -1 -1 -1 -2 -1 -2 -2 -2 -3 -3 -3 -2 -1 -1 -1 -3 -2 -1 -0 -0 0 1 -0 -1 -2 -4 -5 -5 -4 -5 -4 -4 -4 -4 -5 -5 -5 -6 -6 -7 -8
-2 -1 -1 -1 -1 -2 -1 -1 -1 -2 -3 -3 -2 -4 -3 -0 -0 0 -2 -2 -3 -2 -2 -1 -0 -1 -4 -5 -6 -6 -6 -6 -6 -5 -5 -5 -6 -6 -7 -8 -8 -8 -9 -10
-2 -1 -1 -2 -1 -1 -2 -2 -2 -2 -2 -1 -2 -4 -1 -0 -0 -0 -0 -1 -3 1 -1 -0 -3 -6 -6 -7 -7 -7 -8 -8 -8 -6 -7 -6 -7 -8 -9 -9 -9 -9 -10 -10
-1 -1 -1 -1 -1 -2 -2 -2 -2 -2 -1 -1 -2 -2 -1 -0 -0 -1 -1 -1 -0 0 -1 1 -3 -5 -7 -8 -8 -8 -8 -8 -9 -9 -8 -8 -8 -9 -10 -10 -11 -11 -11 -11
-1 -1 -1 -1 -1 -1 -1 -2 -2 -2 -2 -3 -2 -0 0 -0 -0 -0 -0 -0 0 0 -1 -3 -6 -7 -7 -8 -10 -10 -10 -10 -10 -10 -10 -10 -10 -10 -11 -11 -12 -12 -12 -12
-1 -1 -1 -1 -2 -1 -4 -2 -2 -2 -2 -1 0 -0 -0 -0 -0 -0 -2 -1 -1 -1 -4 -7 -8 -7 -8 -9 -11 -11 -11 -11 -11 -11 -12 -11 -11 -11 -12 -12 -12 -12 -12 -12
-2 -3 -4 -2 -8 -7 -6 -6 -3 -2 -2 -0 -1 -1 -1 -1 -2 -1 0 -2 -4 -4 -7 -8 -9 -9 -9 -10 -12 -12 -12 -12 -12 -12 -12 -12 -12 -12 -12 -13 -13 -13 -13 -13
-5 -7 -7 -8 -7 -5 -3 -2 -2 -1 -0 -1 -1 -2 -2 -4 -3 -5 -6 -4 -6 -6 -9 -12 -9 -9 -9 -11 -11 -12 -12 -13 -13 -13 -13 -13 -13 -13 -13 -13 -13 -13 -13 -14
-7 -6 -5 -5 -7 -5 -4 -3 -3 -1 -0 -2 -3 -4 -5 -5 -6 -7 -7 -4 -6 -10 -12 -9 -9 -9 -10 -11 -11 -12 -12 -12 -13 -13 -13 -13 -13 -13 -13 -13 -13 -13 -13 -14
-7 -7 -6 -6 -6 -6 -6 -5 -3 -2 -1 -4 -6 -6 -5 -6 -7 -8 -10 -12 -15 -11 -10 -10 -10 -11 -11 -11 -12 -12 -12 -12 -13 -13 -13 -13 -13 -13 -13 -13 -14 -14 -15 -18

GFSNW_850_dewp_093.txt.gz
Dewpoint
-5 -5 -8 -7 -5 -4 -5 -5 -6 -6 -3 -3 -2 -2 -3 -6 -7 -7 -5 -1 1 2 2 3 4 3 1 -1 0 0 0 3 4 4 2 1 2 4 3 3 6 5 6 4
-6 -6 -7 -8 -5 -4 -4 -4 -6 -6 -3 -3 -3 -4 -4 -5 -6 -6 -7 -5 -1 1 3 4 5 3 0 0 0 -1 -0 2 7 6 2 -0 3 4 5 5 5 5 6 3
-5 -6 -7 -8 -5 -3 -4 -5 -6 -6 -3 -3 -3 -3 -5 -2 -3 -5 -4 -0 1 2 3 3 3 4 -0 -1 2 1 1 1 0 3 3 2 1 0 3 4 5 3 4 2
-5 -6 -6 -9 -4 -3 -4 -4 -6 -4 -4 -5 -4 -4 -3 -2 -1 1 1 2 2 3 3 3 3 1 1 -1 -1 1 0 2 1 0 1 2 1 0 0 3 3 4 1 1
-5 -7 -8 -8 -4 -3 -3 -4 -5 -4 -4 -4 -5 -5 -3 -3 -4 0 1 -0 0 1 2 2 2 0 1 1 -1 -0 -1 3 0 -1 -0 -1 -1 -3 -1 -0 -0 1 1 3
-7 -5 -6 -7 -4 -3 -4 -3 -4 -4 -5 -6 -5 -4 -5 -5 -5 -4 -2 -3 -1 0 1 1 1 0 -0 -0 1 -0 1 0 -2 -1 -0 -2 -4 -2 -6 -5 -4 1 3 2
-5 -3 -6 -9 -5 -2 -3 -4 -3 -4 -5 -6 -7 -6 -6 -5 -6 -3 -3 -1 -0 -1 -1 -1 -2 0 0 0 0 0 1 0 1 0 1 -1 -6 -5 -5 -3 -3 2 3 3
-3 -4 -6 -5 -3 -2 -2 -2 -3 -3 -4 -5 -6 -5 -6 -6 -4 -3 -2 -2 -3 -1 -1 -1 -2 -2 -3 -2 1 -0 -1 0 2 0 -1 -3 -5 0 -0 -1 -3 3 4 4
-4 -4 -7 -4 -3 -3 -2 -3 -2 -3 -4 -6 -5 -5 -4 -3 -2 -4 -2 -5 -3 -2 -1 -0 0 0 -0 -1 0 -0 -0 -0 0 1 -1 -1 -2 -0 1 1 -5 2 3 5
-4 -5 -8 -5 -4 -4 -2 -1 -2 -3 -3 -5 -6 -5 -4 -5 -4 -4 -3 -4 -3 -2 -0 1 1 0 -1 -1 -1 1 2 1 1 1 -0 -1 2 2 0 -2 0 1 1 1
-4 -5 -9 -6 -5 -4 -2 -2 -3 -2 -3 -5 -6 -7 -8 -8 -6 -5 -5 -3 -4 -2 -0 -0 1 1 0 0 -0 2 1 1 2 0 1 2 1 1 2 3 2 2 0 -0
-5 -6 -10 -8 -6 -5 -3 -2 -2 -2 -2 -3 -4 -4 -5 -5 -6 -3 -4 -2 -3 -1 -2 -2 -1 -1 -1 -0 1 -0 2 3 2 2 3 1 0 0 -1 -0 -1 -0 -1 -2
-5 -6 -10 -8 -5 -5 -4 -2 -2 -2 -3 -3 -2 -6 -5 -5 -6 -6 -4 -5 -3 -2 -1 -1 -1 0 0 0 -0 0 1 0 2 2 1 -1 -2 -2 -3 -3 -3 -3 -2 -2
-7 -9 -9 -6 -6 -4 -4 -3 -2 -2 -2 -3 -4 -5 -6 -7 -6 -5 -7 -6 -4 -2 -2 -1 -2 -0 -0 1 -0 1 -1 -1 -1 2 -1 -1 -3 -3 -3 -3 -4 -4 -4 -4
-10 -7 -5 -5 -5 -4 -3 -3 -3 -3 -2 -3 -4 -5 -5 -5 -6 -6 -6 -4 -3 -3 -4 -0 -0 -2 0 1 0 -2 -2 -1 -1 -0 -2 -2 -4 -5 -4 -4 -5 -5 -6 -6
-9 -5 -4 -3 -3 -3 -2 -3 -3 -2 -2 -2 -2 -5 -6 -3 -5 -6 -6 -3 -3 -3 -1 -0 -0 -1 0 0 -0 -2 -3 -3 -3 -2 -3 -4 -5 -5 -6 -6 -6 -6 -7 -8
-6 -2 -1 -2 -2 -2 -3 -2 -3 -2 -2 -2 -3 -4 -2 -2 -3 -5 -5 -5 -5 -3 -1 -0 -0 -1 -0 0 -1 -3 -3 -4 -4 -4 -3 -4 -5 -6 -7 -7 -7 -8 -8 -8
-2 -2 -2 -2 -2 -2 -2 -2 -2 -3 -2 -2 -3 -3 -3 -2 -2 -2 -3 -3 -1 -1 -1 -1 -0 -1 -0 -0 -4 -5 -6 -5 -6 -5 -5 -5 -6 -6 -7 -8 -8 -9 -9 -10
-2 -1 -1 -1 -2 -2 -2 -2 -2 -2 -3 -3 -4 -2 -2 -1 -1 -1 -1 -1 -1 -2 -0 -1 -1 -2 -1 -5 -5 -6 -7 -7 -8 -6 -6 -7 -7 -8 -9 -9 -9 -10 -10 -10
-2 -2 -1 -1 -1 -1 -2 -2 -3 -2 -3 -2 -2 -3 -2 -1 -1 -2 -1 -2 -2 -1 -3 -2 -0 -3 -6 -7 -7 -7 -8 -9 -9 -6 -7 -7 -8 -9 -10 -10 -11 -11 -11 -11
-2 -2 -2 -1 -2 -2 -2 -2 -2 -3 -2 -4 -3 -3 -2 -2 -0 -1 -2 -2 -3 -1 -2 -2 -2 -3 -7 -8 -8 -9 -9 -10 -9 -10 -9 -9 -9 -10 -11 -11 -12 -11 -12 -12
-2 -2 -2 -2 -1 -2 -3 -3 -3 -3 -4 -3 -4 -3 -1 -2 -0 -1 -2 -2 -1 -1 -1 -1 -2 -7 -8 -8 -9 -11 -11 -11 -10 -10 -11 -11 -11 -11 -11 -12 -12 -12 -12 -12
-2 -2 -2 -2 -2 -1 -3 -3 -2 -2 -4 -3 -2 -1 -2 -1 -1 -1 -1 -2 -1 -2 -1 -2 -7 -8 -9 -10 -11 -12 -12 -11 -11 -12 -12 -11 -12 -12 -12 -12 -12 -12 -13 -13
-1 -2 -1 -4 -4 -4 -6 -4 -4 -5 -4 -2 -1 -2 -1 -1 -1 -1 -2 -2 -2 -2 -2 -4 -8 -8 -9 -11 -12 -12 -12 -12 -12 -12 -12 -12 -12 -13 -13 -13 -13 -13 -13 -13
-3 -3 -2 -4 -6 -5 -4 -3 -3 -3 -4 -1 -1 -1 -2 -3 -2 -3 -3 -2 -1 -3 -3 -9 -9 -9 -11 -12 -12 -12 -13 -13 -13 -13 -13 -13 -13 -13 -13 -13 -13 -13 -13 -13
-5 -5 -6 -6 -5 -5 -3 -3 -3 -2 -2 -2 -2 -3 -3 -4 -5 -3 -2 -2 -2 -6 -10 -10 -9 -10 -12 -12 -12 -13 -13 -13 -13 -13 -13 -13 -13 -13 -13 -13 -13 -14 -14 -17
-7 -7 -7 -6 -6 -5 -4 -3 -2 -1 -2 -3 -5 -5 -4 -7 -7 -6 -8 -6 -10 -11 -10 -10 -10 -11 -12 -12 -12 -12 -12 -13 -13 -13 -13 -13 -13 -13 -13 -14 -14 -14 -15 -16

GFSNW_850_dewp_096.txt.gz
Dewpoint
-6 -4 -7 -10 -8 -6 -7 -5 -5 -8 -7 -3 -5 -4 -5 -5 -6 -8 -8 -3 -1 1 2 3 5 6 2 -1 -2 -2 1 -1 1 -1 1 -2 -3 -2 -1 1 5 4 4 3
-7 -5 -7 -10 -7 -5 -5 -3 -5 -7 -2 -2 -5 -6 -7 -6 -5 -4 -8 -7 -4 0 2 4 4 5 1 1 0 0 -0 2 5 5 2 -0 1 1 1 3 3 5 6 3
-7 -5 -7 -9 -6 -4 -5 -3 -2 -5 -3 -3 -4 -5 -5 -3 -5 -1 -1 -2 2 3 3 3 4 4 2 1 1 1 -1 -0 1 2 2 1 3 2 1 2 4 2 2 -1
-5 -5 -6 -8 -5 -3 -3 -3 -4 -4 -2 -4 -4 -5 -3 -3 -1 -4 -0 0 -1 1 2 2 3 2 2 -1 1 1 1 0 -1 -1 -2 -2 -3 -4 -3 -2 -1 1 -2 -1
-6 -5 -7 -9 -5 -3 -4 -2 -5 -4 -5 -5 -6 -6 -4 -4 -5 -2 -2 -0 -1 -1 1 2 3 2 2 1 -1 1 1 1 -3 -1 -4 -5 -5 -7 -7 -5 -4 -3 -2 -1
-6 -6 -6 -7 -5 -3 -3 -4 -5 -3 -6 -7 -6 -7 -8 -7 -7 -5 -3 -2 -2 -1 -1 -1 -1 -0 -0 -0 1 1 -2 -3 -5 -1 -4 -7 -5 -4 -6 -5 -4 -2 -1 -0
-6 -6 -5 -9 -6 -4 -3 -4 -4 -3 -4 -6 -7 -7 -8 -8 -8 -4 -4 -3 -2 -2 -1 -1 -1 -0 -1 -2 -1 -1 -3 -5 -4 -3 -4 -6 -4 -6 -4 -4 -1 -0 0 2
-7 -5 -3 -9 -6 -3 -3 -3 -3 -2 -3 -7 -9 -7 -7 -6 -6 -5 -4 -4 -3 -1 -1 -2 -6 -4 -3 -2 -1 -2 -2 -3 -2 -3 -5 -5 -1 -0 -1 -1 -1 0 3 2
-5 -3 -5 -7 -4 -3 -3 -4 -3 -3 -3 -7 -7 -6 -5 -5 -5 -6 -5 -4 -2 -2 -1 -2 -1 -2 -3 -3 -3 -2 -2 -2 -3 -2 -4 -2 1 -1 -1 -1 -1 0 1 2
-4 -4 -5 -7 -5 -3 -3 -2 -3 -3 -2 -5 -5 -6 -6 -6 -7 -7 -7 -5 -3 -2 -0 -1 -1 -2 -3 -2 -3 -1 -0 0 0 0 -1 -1 1 -1 -2 -0 4 1 0 -0
-4 -3 -5 -10 -6 -4 -4 -2 -2 -3 -2 -4 -4 -5 -5 -6 -6 -5 -5 -3 -4 -2 -1 -1 -1 -0 -0 -1 -0 0 -0 1 1 0 0 1 0 -1 2 1 1 1 -0 -1
-5 -4 -5 -7 -7 -5 -4 -3 -2 -2 -2 -2 -4 -4 -4 -4 -5 -4 -4 -3 -3 -2 -1 -2 -2 0 -1 -1 1 -1 2 2 3 2 2 -0 -2 -2 -2 -2 -2 -1 -2 -2
-4 -4 -6 -8 -11 -6 -4 -3 -2 -2 -3 -3 -2 -3 -3 -5 -5 -4 -4 -5 -3 -1 -1 -2 -2 0 -1 -0 -1 -1 1 -1 2 3 -0 -2 -2 -2 -3 -3 -4 -3 -3 -3
-4 -5 -6 -10 -11 -6 -4 -3 -3 -2 -2 -2 -4 -6 -5 -6 -6 -4 -4 -4 -3 -2 -1 -2 -2 -0 -2 -1 -1 -1 -1 -2 -0 2 -0 -2 -2 -3 -3 -4 -4 -5 -5 -5
-4 -6 -10 -10 -7 -7 -4 -3 -3 -3 -3 -1 -3 -3 -3 -5 -5 -6 -3 -3 -4 -3 -4 -3 -1 -3 -1 -0 0 -1 -2 -1 0 -0 -2 -2 -3 -5 -5 -5 -6 -5 -5 -6
-5 -8 -8 -7 -5 -6 -3 -2 -3 -3 -3 -2 -2 -3 -4 -5 -4 -3 -3 -3 -3 -3 -4 -2 -0 0 -0 -0 -1 -2 -2 -2 -3 -2 -3 -3 -5 -5 -6 -6 -7 -7 -7 -8
-6 -9 -6 -5 -4 -3 -3 -2 -2 -3 -2 -2 -2 -4 -1 -2 -2 -3 -3 -2 -2 -3 -3 -2 -1 -2 -1 -1 -2 -3 -3 -3 -3 -3 -3 -4 -4 -5 -6 -7 -8 -9 -9 -9
-9 -9 -4 -2 -2 -2 -2 -2 -2 -2 -2 -2 -1 -3 -3 -2 -2 -3 -2 -2 -2 -1 -2 -1 -1 -2 -2 -0 -3 -4 -5 -5 -5 -5 -4 -5 -6 -7 -7 -8 -8 -9 -9 -10
-9 -3 -2 -2 -1 -2 -2 -2 -2 -2 -2 -2 -3 -2 -1 -1 -1 -2 -1 -2 -1 -2 -2 -2 -2 -2 -0 -2 -4 -5 -6 -6 -7 -5 -6 -6 -7 -8 -8 -9 -9 -9 -10 -10
-5 -3 -2 -2 -1 -2 -2 -2 -3 -2 -2 -2 -3 -3 -1 -1 -1 -1 -1 -1 -3 -2 -3 -2 -1 -2 -5 -6 -6 -6 -7 -8 -8 -6 -7 -7 -8 -8 -9 -10 -10 -11 -11 -12
-3 -2 -2 -2 -2 -2 -2 -3 -2 -2 -3 -4 -4 -3 -2 -1 -1 -0 -1 -1 -2 -2 -2 -2 -2 -2 -6 -7 -7 -8 -9 -9 -8 -8 -8 -8 -8 -9 -9 -10 -11 -12 -12 -12
-3 -2 -2 -2 -2 -2 -2 -2 -3 -4 -4 -4 -4 -3 -3 -1 -1 -1 -1 -2 -2 -1 -1 -1 -1 -5 -7 -7 -8 -9 -9 -9 -9 -9 -9 -10 -10 -10 -11 -11 -12 -12 -12 -12
-2 -2 -2 -2 -2 -1 -2 -2 -2 -2 -4 -3 -3 -2 -2 -2 -1 -1 -0 -1 -1 -1 1 -0 -3 -7 -8 -8 -10 -10 -10 -10 -11 -11 -11 -12 -12 -12 -12 -12 -12 -13 -13 -13
-2 -2 -0 -1 -1 -2 -2 -3 -2 -2 -2 -2 -2 -2 -2 -2 -1 1 -0 -1 -1 -1 -0 -0 -6 -8 -8 -9 -11 -12 -12 -12 -12 -12 -12 -12 -13 -13 -13 -13 -13 -13 -13 -14
-2 -2 -1 -2 -3 -3 -3 -2 -2 -2 -2 -2 -1 -1 -2 -1 -0 -1 -1 -1 -1 -2 -1 -5 -7 -8 -9 -10 -12 -12 -12 -12 -12 -12 -13 -13 -13 -13 -13 -13 -13 -13 -14 -14
-4 -4 -3 -4 -3 -3 -3 -3 -2 -2 -1 -1 -1 -1 -0 -0 -2 -1 -1 -1 -1 -2 -6 -7 -8 -10 -11 -12 -12 -13 -13 -13 -13 -13 -13 -13 -13 -13 -13 -13 -13 -14 -16 -17
-6 -5 -6 -4 -3 -3 -3 -3 -3 -2 -1 2 -2 -0 -1 -4 -2 -1 -4 -1 -5 -8 -8 -8 -9 -10 -12 -12 -12 -13 -13 -13 -13 -13 -13 -13 -13 -14 -14 -13 -14 -14 -15 -15

GFSNW_850_dewp_102.txt.gz
Dewpoint
-5 -4 -7 -16 -16 -13 -8 -2 -1 -2 -5 0 -3 -4 -6 -7 -7 -5 -4 -4 -1 2 3 3 4 4 4 3 1 2 -4 1 1 -2 3 0 -0 2 2 7 1 6 8 9
-5 -4 -7 -15 -14 -4 -1 -3 -4 -2 -2 -0 -4 -7 -6 -6 -6 -5 -2 -2 -1 2 3 3 3 3 1 1 2 4 3 1 6 2 -1 4 2 2 0 2 6 4 7 9
-6 -6 -6 -15 -12 -10 -2 -3 1 -4 -4 -2 -4 -4 -4 -4 -6 -5 -4 -3 -2 -1 3 -2 2 2 3 1 2 2 3 3 5 4 1 5 7 6 5 3 7 4 5 6
-4 -6 -6 -13 -10 -9 -1 -2 0 -4 -1 -3 -5 -5 -4 -4 -5 -7 -6 -5 -5 -4 3 -1 -0 -1 2 -1 1 2 3 6 5 4 2 1 5 6 5 1 -1 7 3 7
-5 -5 -6 -12 -9 -6 -1 -8 -2 -5 -7 -7 -6 -6 -4 -6 -8 -7 -6 -5 -5 -5 -3 -3 -0 -1 1 2 2 3 2 6 4 5 1 3 1 -3 -3 -4 -2 -0 5 7
-5 -5 -7 -11 -7 -3 -3 -4 -4 -4 -5 -9 -8 -7 -9 -9 -10 -8 -8 -7 -5 -4 -5 -4 -2 -2 -1 0 3 2 2 1 4 -1 -5 -3 1 -3 -1 -0 -1 2 6 5
-5 -5 -7 -11 -6 -1 -2 -4 -3 -4 -2 -8 -10 -10 -11 -10 -9 -8 -8 -8 -5 -6 -4 -3 -4 -3 -3 -5 -4 -3 1 -1 -1 -2 -3 5 0 -1 1 1 0 -1 -1 2
-5 -7 -5 -8 -7 -3 -2 -2 -2 -2 -2 -7 -9 -9 -9 -9 -10 -9 -9 -8 -6 -5 -4 -2 -1 -2 1 -4 -5 -5 -4 -0 1 2 1 1 1 0 1 4 4 0 0 0
-5 -6 -5 -6 -10 -6 -2 -1 -1 -2 -3 -2 -8 -8 -6 -6 -8 -8 -10 -8 -5 -4 -2 -1 1 -1 -4 -3 -4 -7 -5 -1 2 0 -1 5 2 -1 -2 -2 4 1 -1 -1
-5 -7 -5 -3 -7 -7 -4 -2 -4 -1 -2 -4 -5 -5 -5 -6 -6 -6 -7 -7 -4 -4 -0 1 1 4 -4 1 -1 -0 1 2 3 1 1 2 -1 -2 -2 3 2 1 -1 -2
-6 -7 -4 -5 -7 -7 -4 -2 -4 -1 -2 -4 -4 -4 -4 -6 -7 -3 -6 -4 -3 -2 1 -2 -2 -1 -2 -0 -1 -1 1 3 2 2 3 3 -2 -2 0 -0 -1 -1 -0 -1
-7 -6 -4 -5 -10 -8 -4 -2 -2 -3 -2 -2 -3 -5 -3 -3 -3 -3 -4 -4 -3 -2 -2 -1 -2 0 0 -2 4 -3 3 1 1 1 1 -0 -2 -1 -2 -1 -2 -2 -2 -2
-7 -6 -3 -5 -9 -7 -6 -2 -3 -2 -3 -2 -3 -4 -2 -2 -1 -1 -2 -1 -4 -2 -2 -2 -1 -1 -2 1 -0 -1 0 -3 2 1 -1 -2 -2 -2 -2 -2 -2 -2 -3 -3
-6 -7 -4 -4 -5 -10 -6 -3 -3 -3 -3 -2 -3 -4 -4 -3 -3 -2 -2 -2 -3 -4 -4 -2 -1 -1 -3 -0 -2 -0 -1 -2 -0 -0 -2 -2 -3 -3 -3 -3 -3 -4 -4 -5
-6 -7 -5 -5 -7 -10 -10 -4 -3 -2 -1 -1 -4 -4 -5 -4 -2 -2 -2 -2 -3 -4 -5 -2 -1 -3 -1 -3 -2 -0 -2 -1 -0 -0 -1 -2 -2 -3 -3 -5 -5 -6 -6 -6
-6 -7 -4 -4 -7 -12 -3 -3 -3 -4 -3 -1 -2 -3 -2 -2 -2 -2 -3 -3 -3 -4 -4 -4 -4 -4 -1 -0 1 -1 -2 -1 -1 -1 -2 -3 -4 -3 -4 -6 -7 -8 -7 -7
-7 -7 -4 -6 -11 -8 -3 -2 -1 -2 -2 -1 -3 -3 -2 -3 -3 -2 -2 -3 -2 -3 -3 -4 -4 -4 -2 0 0 -2 -3 -3 -1 -2 -2 -2 -3 -5 -6 -7 -7 -8 -8 -8
-7 -5 -5 -9 -8 -5 -3 -2 -2 -1 -2 -3 -2 -3 -1 -2 -2 -2 -2 -2 -2 -2 -4 -4 -3 -4 -2 1 -2 -3 -4 -4 -4 -4 -4 -5 -6 -6 -7 -7 -8 -8 -9 -9
-8 -6 -6 -6 -7 -4 -4 -3 -3 -2 -2 -1 -2 -2 -0 -1 -2 -2 -2 -2 -1 -3 -1 -3 -3 -3 1 -1 -4 -5 -5 -5 -5 -5 -6 -6 -6 -7 -7 -7 -7 -8 -8 -9
-6 -5 -5 -4 -5 -5 -4 -2 -2 -2 -2 -2 -2 -3 -1 -2 -1 -2 -3 -3 -2 1 -2 -3 -2 -0 -4 -4 -4 -5 -5 -6 -6 -5 -5 -6 -7 -8 -8 -8 -9 -9 -10 -11
-5 -4 -3 -2 -2 -2 -2 -2 -2 -2 -2 -3 -4 -4 -3 -2 -1 -0 -3 0 -2 -3 -1 -2 -1 -0 -4 -6 -6 -7 -7 -7 -7 -7 -7 -7 -7 -7 -8 -9 -9 -10 -11 -11
-5 -3 -2 -2 -2 -2 -0 -2 -3 -2 -4 -4 -4 -3 -4 0 -0 1 -2 -2 -1 -1 -2 -1 -1 -3 -5 -6 -7 -7 -8 -8 -9 -8 -9 -9 -9 -9 -9 -10 -11 -11 -12 -12
-5 -3 -2 -2 -2 0 -1 -1 -2 -2 -3 -2 -3 -0 -1 -1 -0 -0 -0 -2 -1 -1 0 -0 -1 -5 -6 -7 -8 -8 -9 -9 -9 -9 -9 -10 -10 -10 -11 -12 -12 -12 -13 -13
-4 -3 -1 0 -1 -2 -2 -2 -1 -1 -1 -2 -3 -2 -2 -2 -1 0 0 0 -2 -1 -0 0 -4 -5 -6 -7 -8 -9 -10 -10 -10 -11 -12 -12 -12 -13 -13 -13 -13 -13 -14 -14
-4 -3 0 -1 -1 -0 0 0 0 -0 -2 -2 -2 -2 -2 -1 1 0 -0 0 -1 -2 1 -2 -5 -6 -7 -8 -9 -10 -11 -11 -11 -12 -13 -13 -13 -13 -13 -13 -13 -14 -14 -16
-3 -3 -0 -1 -1 -1 -2 -1 -1 -2 -3 -2 -1 -1 -0 -1 -1 -0 -0 -1 0 -0 -4 -5 -6 -7 -8 -9 -10 -11 -11 -11 -11 -12 -12 -13 -13 -12 -13 -14 -14 -14 -15 -15
-3 -2 -3 -1 -0 -1 -2 -2 -2 -2 -1 1 -1 -1 -2 -1 -2 -2 -1 0 -2 -5 -5 -6 -7 -8 -9 -10 -11 -11 -11 -11 -11 -11 -12 -12 -12 -13 -13 -12 -13 -14 -14 -15